This demonstration page uses our WeatherBlox Daily Observations layout. Learn more.

Left ArrowRight Arrow

39.51506, -84.39828

Hourly Observations for November 26, 2020

Temp ( °F °C ) Dew Point ( °F °C ) Humidity (%) Winds ( mph kmh ) Pressure ( in mb ) Visibility ( mi km ) Precip ( " mm )
12:15 am 00:15 Cloudy 54 12.3 50 10.1 87 87 W 13 20 29.88 1012 10 16.0934 0 0
12:35 am 00:35 Cloudy 54 12.2 50 10 87 87 W 13 20 29.89 1012 10 16.0934 0 0
12:55 am 00:55 Cloudy 54 12.2 50 10.1 87 87 W 12 19 29.89 1012 10 16.0934 0 0
1:15 am 01:15 Cloudy 54 12.2 50 10 87 87 W 15 24 29.9 1013 10 16.0934 0 0
1:35 am 01:35 Cloudy 54 12.1 50 10.1 88 88 W 9 15 29.9 1013 10 16.0934 0 0
1:55 am 01:55 Cloudy 53 11.9 50 10.2 89 89 W 13 20 29.91 1013 10 16.0934 0 0
2:15 am 02:15 Cloudy 53 11.8 50 10.2 90 90 W 10 17 29.91 1013 10 16.0934 0 0
2:35 am 02:35 Cloudy 53 11.6 50 10.1 91 91 W 9 15 29.92 1013 10 16.0934 0 0
2:55 am 02:55 Mostly Cloudy 52 11.3 50 9.8 91 91 WNW 8 13 29.94 1014 10 16.0934 0 0
3:15 am 03:15 Cloudy 53 11.4 49 9.7 89 89 WNW 10 17 29.94 1014 10 16.0934 0 0
3:35 am 03:35 Cloudy 53 11.4 49 9.6 89 89 WNW 12 19 29.95 1014 10 16.0934 0 0
3:55 am 03:55 Cloudy 52 11.3 49 9.6 89 89 W 10 17 29.96 1014 10 16.0934 0 0
4:15 am 04:15 Cloudy 52 11.2 49 9.4 89 89 W 10 17 29.96 1014 10 16.0934 0 0
4:35 am 04:35 Cloudy 52 11.1 49 9.4 89 89 W 9 15 29.97 1015 10 16.0934 0 0
4:55 am 04:55 Cloudy 52 11 49 9.4 90 90 WNW 10 17 29.98 1015 10 16.0934 0 0
5:15 am 05:15 Cloudy 52 11.1 48 9.1 88 88 WNW 10 17 29.98 1015 10 16.0934 0 0
5:35 am 05:35 Cloudy 52 11 48 8.9 87 87 WNW 9 15 29.99 1015 10 16.0934 0 0
5:55 am 05:55 Cloudy 51 10.3 49 9.3 94 94 NW 5 7 30 1016 10 16.0934 0 0
6:15 am 06:15 Cloudy 50 10.1 49 9.2 94 94 NW 5 7 30.01 1016 10 16.0934 0 0
6:35 am 06:35 Cloudy 50 10.1 49 9.2 94 94 WNW 3 6 30.02 1017 10 16.0934 0 0
6:55 am 06:55 Cloudy 50 10.1 48 9.1 94 94 WNW 7 11 30.02 1017 10 16.0934 0 0
7:15 am 07:15 Cloudy 50 10 48 9.1 94 94 WNW 6 9 30.03 1017 10 16.0934 0 0
7:35 am 07:35 Cloudy 50 10.1 48 9.1 94 94 Calm 30.04 1017 10 16.0934 0 0
7:55 am 07:55 Cloudy 50 9.9 49 9.2 95 95 NNW 3 6 30.05 1018 10 16.0934 0 0
8:15 am 08:15 Cloudy with Light Rain 49 9.5 48 8.8 95 95 NW 8 13 30.06 1018 4 6.43736 0 0
8:35 am 08:35 Cloudy with Mist and Fog 49 9.3 48 8.9 97 97 NW 6 9 30.07 1018 5 8.0467 0 0
8:55 am 08:55 Cloudy 49 9.2 48 8.9 98 98 NW 6 9 30.07 1018 10 16.0934 0 0
9:15 am 09:15 Cloudy 49 9.4 48 8.7 95 95 NW 7 11 30.08 1019 10 16.0934 0 0
9:35 am 09:35 Cloudy 49 9.6 47 8.5 93 93 WNW 9 15 30.08 1019 10 16.0934 0 0
9:55 am 09:55 Cloudy 49 9.7 47 8.4 92 92 WNW 6 9 30.09 1019 10 16.0934 0 0
10:15 am 10:15 Cloudy 50 9.8 47 8.2 90 90 NW 8 13 30.09 1019 10 16.0934 0 0
10:35 am 10:35 Cloudy 50 10 47 8.3 89 89 NW 7 11 30.1 1019 10 16.0934 0 0
10:55 am 10:55 Cloudy 50 9.8 47 8.2 90 90 NW 6 9 30.11 1020 10 16.0934 0 0
11:15 am 11:15 Cloudy 50 9.9 47 8.2 89 89 WNW 6 9 30.11 1020 10 16.0934 0 0
11:35 am 11:35 Cloudy 50 10 47 8.2 89 89 NW 9 15 30.11 1020 10 16.0934 0 0
11:55 am 11:55 Cloudy 50 10 47 8.2 89 89 NW 6 9 30.1 1019 10 16.0934 0 0
12:15 pm 12:15 Cloudy 50 10 47 8.3 89 89 W 7 11 30.1 1019 10 16.0934 0 0
12:35 pm 12:35 Cloudy 50 10 47 8.3 89 89 WNW 6 9 30.1 1019 10 16.0934 0 0
12:55 pm 12:55 Cloudy 51 10.5 47 8.4 87 87 W 7 11 30.09 1019 10 16.0934 0 0
1:15 pm 13:15 Cloudy 51 10.8 47 8.4 85 85 W 8 13 30.09 1019 10 16.0934 0 0
1:35 pm 13:35 Cloudy 51 10.8 47 8.3 85 85 W 6 9 30.08 1019 10 16.0934 0 0
1:55 pm 13:55 Cloudy 51 10.8 47 8.2 84 84 W 5 7 30.08 1019 10 16.0934 0 0
2:15 pm 14:15 Cloudy 52 11 47 8.1 82 82 W 9 15 30.08 1019 10 16.0934 0 0
2:35 pm 14:35 Cloudy 51 10.8 47 8.3 85 85 Calm 30.08 1019 10 16.0934 0 0
2:55 pm 14:55 Cloudy 52 10.9 47 8.5 85 85 Calm 30.07 1018 10 16.0934 0 0
3:15 pm 15:15 Cloudy 52 10.9 47 8.3 84 84 Calm 30.07 1018 10 16.0934 0 0
3:35 pm 15:35 Cloudy 52 11 47 8.5 85 85 NW 3 6 30.08 1019 10 16.0934 0 0
3:55 pm 15:55 Cloudy 51 10.8 47 8.4 85 85 NW 5 7 30.08 1019 10 16.0934 0 0
4:15 pm 16:15 Cloudy 51 10.5 47 8.3 86 86 Calm 30.09 1019 10 16.0934 0 0
4:35 pm 16:35 Cloudy 51 10.5 47 8.3 86 86 Calm 30.09 1019 10 16.0934 0 0
4:55 pm 16:55 Cloudy 51 10.5 47 8.3 86 86 Calm 30.09 1019 10 16.0934 0 0
5:15 pm 17:15 Cloudy 51 10.3 47 8.4 88 88 Calm 30.1 1019 10 16.0934 0 0
5:35 pm 17:35 Cloudy 50 10.2 47 8.4 89 89 Calm 30.1 1019 10 16.0934 0 0
5:55 pm 17:55 Cloudy 50 10 47 8.5 91 91 Calm 30.1 1019 10 16.0934 0 0
6:15 pm 18:15 Cloudy 50 9.9 47 8.4 90 90 Calm 30.11 1020 10 16.0934 0 0
6:35 pm 18:35 Cloudy 50 9.8 47 8.3 90 90 Calm 30.12 1020 10 16.0934 0 0
6:55 pm 18:55 Cloudy 50 9.8 47 8.2 90 90 Calm 30.12 1020 10 16.0934 0 0
7:15 pm 19:15 Cloudy 49 9.7 47 8.2 90 90 Calm 30.12 1020 10 16.0934 0 0
7:35 pm 19:35 Cloudy 49 9.4 47 8.2 92 92 Calm 30.12 1020 10 16.0934 0 0
7:55 pm 19:55 Cloudy 49 9.6 47 8.2 91 91 Calm 30.13 1020 10 16.0934 0 0
8:15 pm 20:15 Cloudy 49 9.3 47 8.3 94 94 Calm 30.13 1020 10 16.0934 0 0
8:35 pm 20:35 Cloudy 49 9.2 47 8.3 94 94 Calm 30.13 1020 10 16.0934 0 0
8:55 pm 20:55 Cloudy 49 9.3 47 8.3 94 94 Calm 30.13 1020 10 16.0934 0 0
9:15 pm 21:15 Cloudy 49 9.2 47 8.3 94 94 W 3 6 30.14 1021 10 16.0934 0 0
9:35 pm 21:35 Cloudy 49 9.3 46 7.6 89 89 Calm 30.14 1021 10 16.0934 0 0
9:55 pm 21:55 Cloudy 49 9.2 45 7.2 87 87 Calm 30.14 1021 10 16.0934 0 0
10:15 pm 22:15 Cloudy 49 9.2 45 7 86 86 Calm 30.13 1020 10 16.0934 0 0
10:35 pm 22:35 Cloudy 48 9.1 44 6.9 86 86 Calm 30.13 1020 10 16.0934 0 0
10:55 pm 22:55 Cloudy 49 9.2 44 6.4 83 83 Calm 30.12 1020 10 16.0934 0 0
11:15 pm 23:15 Cloudy 48 9.1 45 7 87 87 Calm 30.13 1020 10 16.0934 0 0
11:35 pm 23:35 Cloudy 47 8.4 46 7.9 97 97 Calm 30.12 1020 10 16.0934 0 0
11:55 pm 23:55 Cloudy 47 8.3 46 7.9 97 97 Calm 30.13 1020 10 16.0934 0 0

Powered by AerisWeather